Weather History for St. Paul, MN

Change the Weather History Date:

Wednesday, September 11, 2013

  Actual Average Record
Temperature  
Mean Temperature 74 °F -  
Max Temperature 84 °F 74 °F 96 °F (2012)
Min Temperature 63 °F 53 °F 46 °F (1999)
Cooling Degree Days 8    
Growing Degree Days 24 (Base 50)    
Moisture  
Dew Point 56 °F    
Average Humidity 57    
Maximum Humidity 93    
Minimum Humidity 27    
Precipitation  
Precipitation 0.00 in - - ()
Sea Level Pressure  
Sea Level Pressure 30.00 in    
Wind  
Wind Speed 5 mph (WNW)    
Max Wind Speed 18 mph    
Max Gust Speed 24 mph    
Visibility 10 miles    
Events      
Averages and records for this station are not official NWS values.
T = Trace of Precipitation, MM = Missing Value Source: NWS Daily Summary

Daily Weather History Graph

Daily Weather History Graph

Search for Another Location

Airport:

Trip Planner

Search our weather history database for the weather conditions in past years. The results will help you decide how hot, cold, wet, or windy it might be!

Date:

Astronomy

Sep. 11, 2013 Rise Set
Actual Time 6:46 AM CDT 7:30 PM CDT
Civil Twilight 6:16 AM CDT 7:59 PM CDT
Nautical Twilight 5:41 AM CDT 8:34 PM CDT
Astronomical Twilight 5:04 AM CDT 9:11 PM CDT
Moon 1:32 PM CDT (9/11) 11:09 PM CDT (9/11)
Length of Visible Light 13h 42m
Length of Day
12h 43m
Waxing Crescent, 39% of the Moon is Illuminated
Sep 11
Waxing Crescent
Sep 12
First Quarter
Sep 19
Full
Sep 26
Last Quarter
Oct 4
New

Hourly Weather History & Observations

Time (CDT) Temp. Heat Index Dew Point Humidity Pressure Visibility Wind Dir Wind Speed Gust Speed Precip Events Conditions
12:53 AM 69.1 °F - 59.0 °F 70% 29.98 in 10.0 mi Calm Calm - N/A   Clear
1:53 AM 66.0 °F - 61.0 °F 84% 29.99 in 10.0 mi Calm Calm - N/A   Clear
2:53 AM 66.9 °F - 61.0 °F 81% 29.98 in 10.0 mi Calm Calm - N/A   Clear
3:53 AM 66.0 °F - 62.1 °F 87% 29.99 in 10.0 mi Calm Calm - N/A   Clear
4:53 AM 66.0 °F - 61.0 °F 84% 30.00 in 10.0 mi Calm Calm - N/A   Clear
5:53 AM 63.0 °F - 60.1 °F 90% 30.01 in 10.0 mi Calm Calm - N/A   Clear
6:53 AM 63.0 °F - 61.0 °F 93% 30.01 in 10.0 mi South 3.5 mph - N/A   Clear
7:53 AM 66.0 °F - 63.0 °F 90% 30.01 in 9.0 mi SSE 5.8 mph - N/A   Clear
8:53 AM 71.1 °F - 62.1 °F 73% 30.01 in 10.0 mi Calm Calm - N/A   Clear
9:53 AM 75.0 °F - 60.1 °F 60% 30.00 in 10.0 mi SW 9.2 mph - N/A   Scattered Clouds
10:53 AM 79.0 °F - 59.0 °F 50% 30.00 in 10.0 mi WSW 8.1 mph - N/A   Clear
11:53 AM 82.0 °F 81.4 °F 55.0 °F 39% 30.00 in 10.0 mi West 12.7 mph - N/A   Clear
12:53 PM 82.9 °F 82.0 °F 55.0 °F 38% 29.99 in 10.0 mi NW 12.7 mph 20.7 mph N/A   Partly Cloudy
1:53 PM 82.0 °F 81.6 °F 55.9 °F 41% 29.99 in 10.0 mi NW 18.4 mph 24.2 mph N/A   Scattered Clouds
2:53 PM 84.9 °F - 52.0 °F 32% 30.00 in 10.0 mi NW 18.4 mph 23.0 mph N/A   Partly Cloudy
3:53 PM 84.0 °F - 48.0 °F 28% 30.00 in 10.0 mi NNW 13.8 mph - N/A   Clear
4:53 PM 82.9 °F - 46.0 °F 27% 30.00 in 10.0 mi NNW 13.8 mph - N/A   Clear
5:53 PM 80.1 °F - 48.0 °F 32% 30.00 in 10.0 mi NW 9.2 mph - N/A   Partly Cloudy
6:53 PM 81.0 °F - 48.0 °F 31% 29.99 in 10.0 mi NNW 6.9 mph - N/A   Clear
7:53 PM 75.0 °F - 50.0 °F 41% 29.99 in 10.0 mi Calm Calm - N/A   Clear
8:53 PM 71.1 °F - 57.0 °F 61% 30.01 in 10.0 mi Calm Calm - N/A   Clear
9:53 PM 70.0 °F - 54.0 °F 57% 30.01 in 10.0 mi West 10.4 mph - N/A   Clear
10:53 PM 72.0 °F - 48.9 °F 44% 30.03 in 10.0 mi NW 15.0 mph - N/A   Clear
11:53 PM 70.0 °F - 48.0 °F 46% 30.04 in 10.0 mi NW 12.7 mph - N/A   Clear